Wind_Speed
6 1 4 8 8 6 6 6 7 8 10 9 9 9 7 8 9 10 10 11 12 12 13 15 16 19 22 25 28 31 33 33 32 30 27 29 30 31 32 32 32 32 32
5 3 6 9 9 8 8 10 9 7 10 13 13 11 10 10 12 13 13 14 15 16 17 18 20 22 26 29 32 35 38 40 40 38 38 37 34 33 35 33 33 31 32
11 4 3 5 7 6 6 9 12 11 10 14 15 14 13 12 13 15 15 16 18 19 20 22 24 25 28 32 35 38 40 43 44 44 44 47 49 49 43 39 38 36 34
12 1 3 4 5 4 4 7 11 14 15 15 15 15 15 14 16 17 17 18 20 21 23 25 27 29 32 36 38 41 44 45 45 46 48 49 53 55 57 51 40 40 38
12 2 2 4 5 5 8 10 12 14 17 17 14 16 16 17 18 19 19 19 21 23 25 28 31 34 37 37 40 44 47 49 51 52 53 54 53 52 53 55 51 39 35
11 5 7 6 6 9 12 12 12 13 17 18 15 15 17 18 19 20 21 24 26 28 31 33 36 38 38 40 43 46 50 53 54 56 57 58 59 59 58 58 55 53 47
10 10 9 7 7 7 10 13 12 13 15 18 16 14 14 17 19 21 23 26 28 32 35 36 36 38 43 47 48 50 54 56 59 61 62 62 60 58 56 55 53 52 48
13 15 13 11 10 12 13 12 11 11 13 17 18 16 15 15 16 19 22 25 28 32 35 32 37 40 46 49 52 53 56 59 62 62 62 60 57 55 53 51 49 46 43
15 12 10 7 8 12 14 12 11 13 16 19 19 17 16 16 16 16 20 22 26 29 32 35 38 44 46 49 51 55 59 62 62 61 58 55 52 48 45 43 42 40 40
10 7 3 6 9 10 15 19 19 18 20 22 20 19 18 18 17 20 23 26 29 32 31 32 43 48 46 50 54 58 60 61 59 57 54 50 46 43 39 34 30 30 31
9 4 8 9 10 13 17 22 23 23 24 23 22 21 20 19 22 24 27 33 34 30 36 45 41 45 49 53 57 59 58 57 55 52 49 45 40 35 30 28 26 25 27
10 12 13 14 20 16 17 20 24 27 26 24 22 21 20 23 23 25 27 33 33 39 42 42 45 49 52 54 55 54 53 52 50 46 42 38 31 29 28 27 26 26 26
14 14 15 18 16 11 12 16 20 24 26 25 23 22 23 23 24 28 31 31 39 38 41 45 47 49 50 50 49 49 48 47 44 40 36 34 31 29 27 26 25 26 26
20 20 19 18 13 10 9 11 13 17 24 24 23 23 22 23 26 30 36 34 36 39 42 44 46 46 46 45 45 45 45 42 38 33 31 31 31 29 28 27 27 27 27
24 21 19 18 13 8 6 7 9 15 21 22 21 20 22 26 30 33 32 34 37 39 42 43 43 43 43 43 43 43 42 37 32 29 29 29 29 29 28 29 29 28 28
21 18 17 14 9 7 5 5 8 12 16 17 18 22 27 26 27 29 32 35 37 40 40 41 42 41 41 40 41 40 36 32 30 28 27 27 27 27 26 25 27 29 30
17 16 14 10 8 6 6 7 9 12 14 16 18 19 21 24 26 29 32 36 37 38 40 40 40 39 38 37 36 34 31 30 28 27 27 27 28 27 26 26 26 26 28
15 14 10 9 8 7 8 10 10 11 13 15 17 19 21 24 27 30 33 35 37 38 38 39 39 38 37 35 31 27 27 27 27 26 27 26 26 26 26 26 25 25 25
15 12 11 10 9 9 10 11 12 13 15 16 17 19 22 25 27 31 32 34 36 38 38 38 38 38 37 36 31 25 24 25 25 25 26 26 25 26 27 27 26 26 25
13 11 11 11 10 10 11 12 13 14 15 16 18 20 22 25 28 30 31 33 35 37 37 37 37 37 37 35 31 25 23 25 25 24 24 25 26 26 27 28 28 28 28
12 12 12 11 11 11 12 12 13 13 15 17 19 21 22 25 27 29 32 33 35 36 36 36 35 36 35 34 31 27 25 25 25 24 23 24 25 26 27 28 29 30 30
12 12 12 11 11 12 13 13 13 14 16 17 19 21 23 25 27 29 31 33 34 34 34 34 34 34 34 32 29 27 25 26 27 27 25 24 25 26 28 29 30 31 30
13 12 12 12 13 13 13 13 14 15 16 18 19 21 24 26 27 29 31 32 32 32 32 31 31 32 31 29 28 27 25 26 26 27 26 26 26 27 29 30 31 31 29
12 12 14 13 13 13 13 14 14 15 17 17 19 22 24 26 28 30 31 32 31 31 30 29 30 31 30 28 26 25 25 25 24 24 25 26 27 28 30 30 30 29 28
12 13 14 13 13 14 14 14 15 15 16 17 19 22 23 26 29 30 32 32 31 30 29 29 29 29 29 28 27 26 25 25 25 24 25 25 25 26 28 28 27 26 26
12 13 13 13 13 14 15 15 16 17 17 18 19 21 23 25 28 31 32 32 31 30 30 30 29 28 29 28 27 27 26 25 25 25 25 25 25 26 26 26 25 25 26
Wind_Direction
275 17 96 92 84 54 11 333 293 279 281 279 277 277 283 290 284 281 279 278 282 284 290 297 304 313 316 320 322 323 325 325 322 319 317 318 319 319 317 316 312 308 305
281 65 100 93 81 68 35 14 359 313 289 287 283 291 292 285 282 280 275 273 277 280 285 291 301 307 311 314 316 318 321 322 322 321 322 321 316 314 313 312 308 304 300
272 330 71 74 68 63 23 3 2 349 317 293 295 296 293 287 282 275 271 271 275 279 281 290 299 303 305 308 311 315 318 320 321 323 324 323 320 319 318 317 313 306 298
258 310 71 63 61 27 341 331 337 338 331 319 298 292 288 286 278 277 275 272 276 280 283 290 295 301 305 306 309 313 315 317 320 322 321 321 320 319 317 316 313 308 303
241 254 12 300 332 308 297 292 310 322 325 327 305 290 290 285 280 279 279 277 278 283 288 291 297 302 303 304 307 310 315 319 320 319 319 316 314 312 312 312 313 306 301
235 261 246 257 287 289 283 286 301 310 320 325 317 300 289 288 286 285 285 289 294 298 298 301 302 302 302 304 308 313 317 317 316 316 316 316 318 318 317 316 316 314 314
242 261 266 262 264 292 289 284 296 303 314 317 314 306 296 291 294 298 297 301 303 301 302 303 306 315 316 315 315 314 314 315 316 318 318 318 316 315 313 312 311 310 307
249 262 262 241 241 260 261 272 281 289 292 298 304 315 321 321 316 310 309 308 306 307 309 315 309 312 308 312 310 313 313 314 314 314 314 313 312 311 310 309 309 306 300
251 253 253 259 248 253 247 247 249 257 269 282 296 308 314 320 318 313 311 304 307 320 314 302 308 309 303 304 309 310 312 311 312 311 311 310 309 309 308 307 304 302 303
212 197 244 313 301 270 246 238 240 249 259 274 291 303 309 316 318 312 313 321 319 308 305 306 303 303 308 309 309 310 309 310 310 309 310 310 313 312 310 308 306 305 304
206 270 335 328 316 288 252 246 244 250 259 273 285 295 304 312 314 318 316 302 307 296 297 305 309 308 309 309 308 309 309 308 309 311 313 315 317 316 317 317 313 309 306
254 292 314 318 314 289 259 251 248 250 260 270 279 289 298 306 309 308 315 303 295 292 301 307 308 308 309 308 308 308 308 309 312 315 317 318 321 319 320 317 314 310 306
274 277 304 316 308 283 262 253 247 250 258 266 275 285 296 300 302 305 295 289 297 302 305 306 307 308 307 309 310 310 311 314 317 321 321 320 321 321 320 318 315 311 308
281 289 302 310 301 285 256 239 239 249 254 262 272 283 291 294 288 289 293 296 299 302 304 307 308 309 312 313 313 314 315 318 321 324 322 321 323 323 322 319 317 313 309
278 284 298 300 290 268 253 232 226 241 251 260 272 278 281 281 283 288 294 298 303 306 307 309 313 316 316 317 317 317 319 321 324 325 323 324 325 325 325 322 319 316 315
266 281 292 288 274 278 259 242 239 247 255 264 270 268 275 280 287 294 301 306 308 310 313 317 318 317 320 321 320 321 322 323 327 328 325 327 328 328 328 325 322 320 318
268 285 282 268 274 265 261 254 251 255 259 263 266 273 281 289 298 306 309 309 312 316 318 319 320 322 324 325 325 324 322 324 328 329 330 333 332 333 334 334 330 326 322
274 276 257 260 261 263 258 252 252 258 262 268 275 284 294 303 309 311 312 315 319 320 320 323 325 326 326 327 327 321 320 324 329 331 331 332 331 333 334 336 337 334 328
263 243 248 255 255 248 247 252 259 266 271 278 288 298 304 310 313 314 316 319 321 323 326 327 328 328 329 330 330 327 322 324 328 329 329 330 331 332 333 335 337 337 336
248 235 250 251 243 243 251 257 263 270 279 288 296 304 311 314 316 317 320 323 325 326 328 329 330 331 331 330 329 327 323 324 326 326 326 327 329 331 332 333 335 335 336
234 248 253 248 245 253 257 261 268 276 286 294 303 310 314 318 319 322 325 326 328 329 330 331 331 331 330 328 327 325 323 323 325 326 326 326 327 329 332 334 333 334 335
248 247 248 242 247 255 262 267 274 282 289 299 308 313 319 323 324 325 327 328 331 331 330 330 330 329 328 327 324 322 322 324 324 324 325 326 327 330 333 334 334 333 333
241 240 235 235 246 256 261 268 276 285 292 305 313 319 324 325 327 328 330 331 332 331 330 328 328 325 326 326 323 321 322 323 320 320 322 325 327 330 333 333 332 331 331
239 231 228 237 246 255 260 270 280 288 299 311 319 324 325 327 328 329 331 331 331 329 329 328 325 322 325 326 322 318 316 317 319 320 322 323 326 330 331 330 330 329 330
233 231 231 241 250 258 267 277 284 292 305 313 320 323 326 328 328 329 331 331 330 329 329 327 323 322 322 324 322 320 316 315 320 323 324 324 327 328 328 328 329 330 332
233 236 240 248 257 263 273 280 287 299 306 311 319 324 327 329 329 329 331 330 329 328 328 326 324 321 322 324 323 322 319 319 321 323 325 326 326 327 328 329 332 333 334
Height
3177 3177 3178 3178 3179 3180 3181 3180 3180 3180 3180 3180 3180 3179 3179 3179 3178 3178 3178 3176 3175 3174 3173 3171 3169 3166 3164 3162 3159 3156 3153 3150 3148 3145 3143 3137 3132 3127 3122 3118 3113 3108 3103
3175 3175 3176 3177 3178 3179 3180 3179 3179 3179 3179 3178 3178 3178 3178 3177 3176 3176 3176 3174 3173 3171 3170 3168 3165 3163 3160 3157 3155 3151 3146 3142 3138 3135 3130 3127 3127 3123 3117 3112 3108 3104 3099
3173 3173 3174 3175 3176 3178 3179 3179 3178 3177 3177 3176 3176 3177 3176 3176 3175 3174 3173 3171 3169 3168 3166 3164 3161 3159 3156 3153 3150 3146 3142 3137 3130 3125 3121 3113 3108 3105 3106 3104 3098 3094 3091
3170 3170 3172 3173 3174 3176 3177 3177 3177 3176 3175 3173 3173 3173 3174 3174 3172 3171 3170 3168 3166 3164 3163 3160 3157 3154 3151 3148 3144 3139 3135 3130 3124 3118 3113 3106 3099 3092 3084 3085 3090 3083 3079
3167 3168 3169 3170 3171 3173 3175 3175 3175 3174 3172 3170 3169 3169 3170 3171 3169 3168 3166 3164 3162 3161 3159 3156 3153 3149 3146 3142 3138 3132 3127 3121 3115 3109 3104 3099 3094 3089 3081 3071 3068 3073 3071
3163 3165 3166 3167 3168 3170 3172 3173 3172 3171 3169 3167 3167 3166 3166 3166 3166 3165 3162 3160 3158 3157 3154 3151 3148 3144 3140 3135 3130 3125 3119 3113 3107 3101 3095 3087 3079 3071 3064 3057 3053 3049 3048
3160 3161 3162 3163 3165 3167 3169 3170 3170 3169 3166 3164 3163 3163 3163 3163 3162 3161 3159 3157 3155 3152 3148 3145 3141 3137 3132 3127 3122 3117 3110 3104 3097 3088 3081 3075 3068 3062 3056 3050 3044 3039 3036
3158 3159 3159 3161 3163 3165 3167 3168 3168 3167 3163 3160 3159 3159 3160 3160 3159 3158 3156 3154 3151 3146 3143 3140 3136 3132 3127 3122 3116 3109 3102 3095 3088 3081 3074 3068 3061 3054 3047 3040 3035 3030 3026
3155 3156 3157 3158 3159 3161 3163 3164 3164 3162 3160 3158 3157 3157 3156 3155 3155 3154 3153 3150 3146 3142 3139 3135 3131 3127 3121 3115 3108 3102 3095 3087 3080 3072 3065 3057 3051 3045 3039 3034 3027 3021 3016
3153 3154 3156 3157 3156 3157 3158 3159 3159 3158 3156 3154 3154 3154 3153 3152 3151 3150 3147 3144 3141 3136 3133 3130 3125 3120 3114 3107 3101 3094 3086 3078 3069 3061 3054 3047 3042 3036 3030 3025 3021 3017 3012
3152 3152 3152 3152 3153 3152 3151 3152 3153 3153 3152 3151 3151 3151 3150 3148 3147 3145 3142 3138 3136 3133 3130 3124 3119 3114 3107 3101 3093 3085 3076 3067 3060 3052 3045 3038 3033 3028 3023 3018 3014 3010 3006
3148 3149 3149 3148 3148 3146 3146 3147 3148 3148 3148 3148 3148 3147 3146 3145 3143 3140 3138 3135 3132 3128 3124 3119 3114 3107 3101 3093 3085 3076 3067 3058 3051 3044 3038 3032 3028 3023 3018 3014 3009 3005 3001
3145 3146 3145 3145 3143 3142 3141 3141 3142 3143 3144 3145 3144 3144 3144 3141 3139 3136 3133 3130 3126 3122 3118 3113 3108 3101 3093 3085 3076 3066 3057 3051 3044 3037 3031 3025 3022 3018 3013 3009 3004 3000 2996
3141 3141 3141 3140 3138 3137 3137 3137 3138 3140 3141 3141 3141 3140 3139 3137 3136 3134 3130 3127 3123 3119 3113 3107 3100 3092 3084 3075 3067 3058 3050 3044 3037 3032 3027 3021 3017 3012 3008 3003 2999 2994 2990
3137 3137 3136 3135 3134 3133 3133 3133 3134 3136 3138 3138 3138 3137 3136 3135 3133 3130 3126 3122 3117 3112 3105 3098 3091 3084 3075 3067 3059 3050 3043 3036 3032 3028 3022 3017 3013 3008 3003 2998 2993 2988 2984
3134 3134 3133 3131 3130 3129 3130 3130 3131 3133 3134 3133 3133 3133 3132 3130 3128 3125 3120 3115 3110 3104 3097 3090 3082 3075 3068 3060 3051 3043 3036 3031 3027 3023 3019 3013 3009 3004 3000 2995 2989 2983 2978
3130 3129 3128 3127 3126 3126 3126 3127 3129 3129 3130 3130 3130 3129 3128 3125 3122 3118 3113 3108 3103 3096 3090 3082 3075 3068 3061 3053 3045 3037 3032 3027 3023 3019 3014 3010 3004 3000 2995 2991 2986 2980 2975
3126 3125 3124 3124 3124 3124 3124 3125 3126 3126 3127 3127 3126 3125 3123 3120 3116 3112 3106 3100 3095 3089 3082 3075 3067 3060 3054 3048 3042 3035 3029 3024 3019 3015 3011 3006 3001 2997 2992 2987 2982 2977 2972
3122 3121 3122 3122 3122 3122 3123 3123 3123 3124 3123 3123 3122 3120 3117 3114 3110 3105 3100 3095 3088 3081 3074 3068 3061 3053 3046 3040 3035 3031 3026 3021 3017 3013 3008 3004 2999 2993 2988 2983 2978 2974 2969
3117 3118 3119 3119 3119 3120 3121 3121 3121 3120 3119 3118 3116 3114 3112 3108 3104 3099 3094 3088 3082 3075 3068 3061 3054 3047 3041 3035 3030 3027 3023 3019 3014 3010 3005 3000 2995 2990 2985 2979 2974 2969 2964
3112 3113 3114 3115 3116 3116 3117 3117 3117 3116 3115 3113 3111 3109 3107 3103 3099 3094 3088 3083 3076 3069 3062 3056 3049 3043 3038 3032 3026 3022 3019 3015 3010 3006 3002 2997 2992 2987 2981 2976 2970 2965 2959
3108 3110 3111 3111 3112 3113 3113 3113 3113 3112 3111 3109 3107 3104 3101 3097 3093 3088 3083 3077 3070 3064 3057 3051 3045 3039 3034 3028 3023 3019 3015 3010 3006 3002 2998 2993 2988 2983 2977 2972 2966 2961 2955
3106 3106 3107 3108 3109 3109 3109 3109 3109 3108 3106 3104 3101 3098 3095 3091 3087 3083 3077 3071 3065 3059 3053 3047 3042 3036 3031 3025 3020 3015 3011 3007 3003 2998 2993 2989 2984 2979 2973 2967 2962 2957 2952
3101 3102 3103 3105 3105 3106 3106 3105 3105 3103 3101 3098 3095 3092 3089 3085 3081 3077 3071 3066 3061 3055 3049 3044 3038 3033 3028 3022 3017 3012 3008 3004 3000 2995 2990 2985 2980 2974 2969 2964 2959 2953 2948
3096 3098 3099 3100 3101 3101 3101 3101 3100 3098 3095 3093 3090 3087 3083 3079 3076 3071 3066 3061 3055 3050 3045 3039 3034 3029 3023 3018 3013 3008 3004 3000 2996 2991 2986 2982 2977 2972 2966 2961 2955 2950 2945
3092 3094 3095 3096 3097 3097 3097 3096 3095 3093 3090 3087 3084 3081 3077 3074 3070 3066 3060 3056 3050 3045 3039 3034 3029 3024 3019 3014 3009 3004 2999 2995 2991 2987 2982 2978 2973 2968 2963 2957 2952 2946 2941